Location: Burjasot
(39.5167°N, 0.4167°W)
Time: 20:23:32
(UTC+01:00)

ISS - Visible Passes

Search period start: 07 December 2025 00:00
Search period end: 17 December 2025 00:00
Orbit: 416 x 421 km, 51.6° (Epoch: 07 December)

Date Brightness Start Highest point End Pass type
(mag) Time Alt. Az. Time Alt. Az. Time Alt. Az.
11 Dec -0.6 07:10:50 10° S 07:13:12 18° SE 07:15:36 10° E visible
12 Dec -0.1 06:25:05 10° SE 06:25:29 10° SE 06:25:54 10° ESE visible
13 Dec -3.0 07:10:34 10° SW 07:13:52 55° SE 07:17:11 10° ENE visible
14 Dec -1.9 06:23:27 13° SSW 06:25:59 30° SE 06:29:00 10° ENE visible
15 Dec -0.8 05:38:49 17° ESE 05:38:49 17° ESE 05:40:28 10° E visible
15 Dec -3.5 07:11:50 13° WSW 07:14:39 49° NNW 07:17:56 10° NE visible
16 Dec -3.8 06:26:45 80° NNE 06:26:45 80° NNE 06:29:59 10° NE visible
